Weather History for Stigler, OK

Change the Weather History Date:

Saturday, June 23, 2012

  Actual Average (KJSV) Record (KJSV)
Temperature  
Mean Temperature 84 °F -  
Max Temperature 98 °F 90 °F 100 °F (1988)
Min Temperature 69 °F 67 °F 59 °F (1958)
Cooling Degree Days 18    
Growing Degree Days 34 (Base 50)    
Moisture  
Dew Point 62 °F    
Average Humidity 50    
Maximum Humidity 83    
Minimum Humidity 24    
Precipitation  
Precipitation 0.00 in - - ()
Sea Level Pressure  
Sea Level Pressure 29.91 in    
Wind  
Wind Speed 4 mph (SSE)    
Max Wind Speed 13 mph    
Max Gust Speed 24 mph    
Visibility 10 miles    
Events      
Averages and records for this station are not official NWS values.
T = Trace of Precipitation, MM = Missing Value Source: NWS Daily Summary

Daily Weather History Graph

Daily Weather History Graph

Search for Another Location

Airport:

Trip Planner

Search our weather history database for the weather conditions in past years. The results will help you decide how hot, cold, wet, or windy it might be!

Date:

Astronomy

Jun. 23, 2012 Rise Set
Actual Time 6:06 AM CDT 8:38 PM CDT
Civil Twilight 5:36 AM CDT 9:08 PM CDT
Nautical Twilight 4:59 AM CDT 9:45 PM CDT
Astronomical Twilight 4:18 AM CDT 10:26 PM CDT
Moon 10:01 AM CDT 11:17 PM CDT
Length of Visible Light 15h 32m
Length of Day
14h 32m
Waxing Crescent, 16% of the Moon is Illuminated
Jun 23
Waxing Crescent
Jun 26
First Quarter
Jul 3
Full
Jul 10
Last Quarter
Jul 18
New

Hourly Weather History & Observations

Time (CDT) Temp. Heat Index Dew Point Humidity Pressure Visibility Wind Dir Wind Speed Gust Speed Precip Events Conditions
12:15 AM 71.6 °F - 64.4 °F 78% 29.90 in 10.0 mi Calm Calm - N/A   Clear
12:35 AM 73.4 °F - 64.4 °F 73% 29.90 in 10.0 mi Calm Calm - N/A   Clear
12:55 AM 71.6 °F - 64.4 °F 78% 29.90 in 10.0 mi SW 3.5 mph - N/A   Clear
1:15 AM 71.6 °F - 64.4 °F 78% 29.89 in 10.0 mi Calm Calm - N/A   Clear
1:55 AM 69.8 °F - 64.4 °F 83% 29.89 in 10.0 mi NNE 3.5 mph - N/A   Clear
2:15 AM 69.8 °F - 64.4 °F 83% 29.89 in 10.0 mi NNE 3.5 mph - N/A   Clear
2:35 AM 71.6 °F - 64.4 °F 78% 29.89 in 10.0 mi Calm Calm - N/A   Partly Cloudy
2:55 AM 73.4 °F - 64.4 °F 73% 29.89 in 10.0 mi Calm Calm - N/A   Mostly Cloudy
3:15 AM 73.4 °F - 64.4 °F 73% 29.89 in 10.0 mi NE 3.5 mph - N/A   Mostly Cloudy
3:35 AM 73.4 °F - 64.4 °F 73% 29.90 in 10.0 mi East 6.9 mph - N/A   Mostly Cloudy
3:55 AM 73.4 °F - 64.4 °F 73% 29.90 in 10.0 mi East 4.6 mph - N/A   Mostly Cloudy
4:15 AM 75.2 °F - 64.4 °F 69% 29.90 in 10.0 mi ESE 4.6 mph - N/A   Partly Cloudy
4:35 AM 73.4 °F - 64.4 °F 73% 29.90 in 10.0 mi Calm Calm - N/A   Clear
4:55 AM 71.6 °F - 64.4 °F 78% 29.90 in 10.0 mi ESE 4.6 mph - N/A   Clear
5:15 AM 75.2 °F - 66.2 °F 73% 29.90 in 10.0 mi ESE 6.9 mph - N/A   Clear
5:35 AM 73.4 °F - 66.2 °F 78% 29.90 in 10.0 mi ESE 6.9 mph - N/A   Clear
5:55 AM 73.4 °F - 66.2 °F 78% 29.91 in 9.0 mi ESE 5.8 mph - N/A   Clear
6:15 AM 73.4 °F - 66.2 °F 78% 29.93 in 10.0 mi East 4.6 mph - N/A   Clear
6:35 AM 73.4 °F - 66.2 °F 78% 29.93 in 9.0 mi Calm Calm - N/A   Clear
6:55 AM 75.2 °F - 66.2 °F 73% 29.94 in 8.0 mi ESE 5.8 mph - N/A   Clear
7:15 AM 75.2 °F - 66.2 °F 73% 29.95 in 10.0 mi ESE 3.5 mph - N/A   Clear
7:35 AM 77.0 °F - 66.2 °F 69% 29.95 in 10.0 mi ESE 5.8 mph - N/A   Clear
7:55 AM 78.8 °F - 66.2 °F 65% 29.95 in 10.0 mi ESE 8.1 mph - N/A   Clear
8:15 AM 80.6 °F 82.7 °F 66.2 °F 61% 29.96 in 9.0 mi ESE 8.1 mph - N/A   Clear
8:35 AM 82.4 °F 84.6 °F 66.2 °F 58% 29.96 in 8.0 mi SE 8.1 mph - N/A   Clear
8:55 AM 82.4 °F 84.6 °F 66.2 °F 58% 29.96 in 9.0 mi SE 6.9 mph - N/A   Clear
9:15 AM 84.2 °F 85.6 °F 64.4 °F 51% 29.96 in 10.0 mi SSE 6.9 mph - N/A   Clear
9:35 AM 86.0 °F 87.3 °F 64.4 °F 48% 29.96 in 10.0 mi SE 6.9 mph - N/A   Clear
9:55 AM 89.6 °F 89.5 °F 60.8 °F 38% 29.96 in 10.0 mi SSE 11.5 mph - N/A   Clear
10:15 AM 89.6 °F 88.9 °F 59.0 °F 36% 29.96 in 10.0 mi SSW 9.2 mph - N/A   Clear
10:35 AM 89.6 °F 88.9 °F 59.0 °F 36% 29.96 in 10.0 mi South 9.2 mph - N/A   Clear
10:55 AM 91.4 °F 91.4 °F 60.8 °F 36% 29.95 in 10.0 mi South 9.2 mph 17.3 mph N/A   Clear
11:15 AM 91.4 °F 90.7 °F 59.0 °F 34% 29.95 in 10.0 mi South 12.7 mph 16.1 mph N/A   Clear
11:35 AM 93.2 °F 93.3 °F 60.8 °F 34% 29.95 in 10.0 mi South 10.4 mph - N/A   Clear
11:55 AM 93.2 °F 93.3 °F 60.8 °F 34% 29.95 in 9.0 mi South 9.2 mph - N/A   Clear
12:15 PM 93.2 °F 93.3 °F 60.8 °F 34% 29.94 in - SSW 9.2 mph 17.3 mph N/A   Clear
12:35 PM 93.2 °F 92.6 °F 59.0 °F 32% 29.94 in 9.0 mi South 8.1 mph 16.1 mph N/A   Clear
12:55 PM 95.0 °F 94.4 °F 59.0 °F 30% 29.93 in 10.0 mi WSW 8.1 mph - N/A   Clear
1:15 PM 93.2 °F 92.6 °F 59.0 °F 32% 29.93 in 10.0 mi SSW 9.2 mph 16.1 mph N/A   Partly Cloudy
1:35 PM 95.0 °F 94.4 °F 59.0 °F 30% 29.92 in 10.0 mi SSW 4.6 mph 18.4 mph N/A   Partly Cloudy
1:55 PM 95.0 °F 94.4 °F 59.0 °F 30% 29.91 in 10.0 mi South 12.7 mph 24.2 mph N/A   Scattered Clouds
2:15 PM 95.0 °F 94.4 °F 59.0 °F 30% 29.90 in 10.0 mi SW 5.8 mph - N/A   Scattered Clouds
2:35 PM 96.8 °F 96.2 °F 59.0 °F 28% 29.90 in 10.0 mi SW 3.5 mph - N/A   Partly Cloudy
2:55 PM 96.8 °F 95.8 °F 57.2 °F 27% 29.90 in 10.0 mi South 10.4 mph - N/A   Scattered Clouds
3:15 PM 98.6 °F 97.6 °F 57.2 °F 25% 29.90 in 10.0 mi South 11.5 mph 16.1 mph N/A   Mostly Cloudy
3:35 PM 95.0 °F 93.7 °F 57.2 °F 28% 29.90 in 10.0 mi SE 4.6 mph - N/A   Mostly Cloudy
3:55 PM 98.6 °F 97.2 °F 55.4 °F 24% 29.89 in 10.0 mi SSW 4.6 mph - N/A   Scattered Clouds
4:15 PM 96.8 °F 95.8 °F 57.2 °F 27% 29.89 in 10.0 mi South 3.5 mph - N/A   Mostly Cloudy
4:35 PM 95.0 °F 93.7 °F 57.2 °F 28% 29.88 in 9.0 mi SE 6.9 mph - N/A   Mostly Cloudy
4:55 PM 95.0 °F 93.7 °F 57.2 °F 28% 29.88 in 10.0 mi South 5.8 mph - N/A   Mostly Cloudy
5:15 PM 95.0 °F 93.0 °F 55.4 °F 26% 29.87 in 10.0 mi South 5.8 mph - N/A   Partly Cloudy
5:35 PM 98.6 °F 97.6 °F 57.2 °F 25% 29.87 in 10.0 mi SSE 9.2 mph 17.3 mph N/A   Mostly Cloudy
5:55 PM 95.0 °F 93.7 °F 57.2 °F 28% 29.86 in 10.0 mi SSE 8.1 mph - N/A   Mostly Cloudy
6:15 PM 95.0 °F 93.7 °F 57.2 °F 28% 29.86 in 10.0 mi SSE 9.2 mph - N/A   Partly Cloudy
6:35 PM 95.0 °F 94.4 °F 59.0 °F 30% 29.86 in 10.0 mi South 5.8 mph - N/A   Partly Cloudy
6:55 PM 95.0 °F 94.4 °F 59.0 °F 30% 29.86 in 10.0 mi SSW 4.6 mph - N/A   Clear
7:15 PM 95.0 °F 93.7 °F 57.2 °F 28% 29.87 in 10.0 mi South 9.2 mph - N/A   Clear
7:35 PM 93.2 °F 92.6 °F 59.0 °F 32% 29.87 in 10.0 mi SSW 6.9 mph - N/A   Clear
7:55 PM 93.2 °F 94.1 °F 62.6 °F 36% 29.88 in 10.0 mi SSW 4.6 mph - N/A   Scattered Clouds
8:15 PM 91.4 °F 92.1 °F 62.6 °F 38% 29.88 in 10.0 mi SSW 5.8 mph - N/A   Mostly Cloudy
8:35 PM 91.4 °F 92.1 °F 62.6 °F 38% 29.89 in 10.0 mi SW 8.1 mph - N/A   Overcast
8:55 PM 87.8 °F 89.4 °F 64.4 °F 46% 29.89 in 10.0 mi SW 6.9 mph - N/A   Mostly Cloudy
9:15 PM 86.0 °F 87.3 °F 64.4 °F 48% 29.90 in 10.0 mi South 3.5 mph - N/A   Mostly Cloudy
9:55 PM 86.0 °F 87.3 °F 64.4 °F 48% 29.92 in 9.0 mi South 3.5 mph - N/A   Partly Cloudy
10:15 PM 84.2 °F 85.6 °F 64.4 °F 51% 29.93 in 10.0 mi Calm Calm - N/A   Clear
10:35 PM 82.4 °F 83.9 °F 64.4 °F 54% 29.93 in 10.0 mi Calm Calm - N/A   Clear
10:55 PM 82.4 °F 83.9 °F 64.4 °F 54% 29.94 in 10.0 mi Calm Calm - N/A   Clear
11:15 PM 78.8 °F - 66.2 °F 65% 29.94 in 9.0 mi SSW 3.5 mph - N/A   Clear
11:35 PM 77.0 °F - 66.2 °F 69% 29.95 in 10.0 mi SW 3.5 mph - N/A   Clear
11:55 PM 77.0 °F - 66.2 °F 69% 29.95 in 10.0 mi Calm Calm - N/A   Clear